Regional Weather Roundup
Issued by NWS Bismarck, ND

Home | Current Version | Previous Version | Text Only | Print | Product List | Glossary On
Versions: 1 2 3 4 5 6 7 8 9 10 11 12 13 14 15 16 17 18 19 20 21 22 23 24 25 26 27 28 29 30 31 32 33 34 35 36 37 38 39 40 41 42 43 44 45 46 47 48 49 50
000
ASUS43 KBIS 250659
RWRBIS

NWR BROADCAST TEXT
NATIONAL WEATHER SERVICE BISMARCK ND
200 AM CDT SAT OCT 25 2014

NOTE: "FAIR" INDICATES FEW OR NO CLOUDS BELOW 12,000 FEET WITH NO
SIGNIFICANT WEATHER AND/OR OBSTRUCTIONS TO VISIBILITY.


CITY           SKY/WX    TMP DP  RH WIND       PRES   REMARKS
WILLISTON      MOCLDY    44  27  51 W6        30.07R
MINOT          PTCLDY    44  29  55 W8        30.03S
MINOT AFB      NOT AVBL
BISMARCK       CLOUDY    46  30  53 NW5       30.08R
DICKINSON      NOT AVBL
GARRISON         N/A     43  31  62 W8        30.05R
HETTINGER ARPT CLOUDY    47  32  56 N3        30.12S
JAMESTOWN      NOT AVBL
CARRINGTON     FAIR      41  32  70 W13       30.03R
LINTON         FAIR      45  32  61 W6        30.07S
OAKES            N/A     46  36  66 W10       30.03R
$$

CITY           SKY/WX    TMP DP  RH WIND       PRES   REMARKS
GRAND FORKS    CLEAR     47  35  63 W8        29.95R
GRAND FORKS AF NOT AVBL
DEVILS LAKE    CLEAR     45  30  57 W12       29.96S
FARGO          PTCLDY    45  31  58 W10       29.98R
CAVALIER       FAIR      50  32  50 NW14      29.92R
GRAFTON        FAIR      48  32  53 NW14      29.93R
GWINNER        MOSUNNY   52  32  46 W12       30.03R
LANGDON        FAIR      36  28  75 W10       29.94S
$$

CITY           SKY/WX    TMP DP  RH WIND       PRES   REMARKS
ABERDEEN       MOCLDY    55  37  50 NW3       30.05S
MOBRIDGE       MOCLDY    54  37  52 NW7       30.07R
RAPID CITY     CLEAR     42  32  67 NW8       30.15R
GLASGOW        MOCLDY    44  29  55 CALM      30.09R
SIDNEY         CLOUDY    43  32  65 CALM      30.10S
WOLF POINT     CLOUDY    41  32  70 SW6       30.10R
GLENDIVE       CLOUDY    45  34  65 CALM      30.13R
MILES CITY     PTCLDY    48  33  56 S5        30.12R
BAKER          MOCLDY    39  32  76 CALM      30.12F
$$

CITY           SKY/WX    TMP DP  RH WIND       PRES   REMARKS
BILLINGS       PTCLDY    44  34  67 N6        30.10S
GREAT FALLS    CLOUDY    45  39  79 SE6       30.06S
$$




USA.gov is the U.S. government's official web portal to all federal, state and local government web resources and services.